Location: M�t�o Espelette
(43.3451°N, 1.4613°W)
Time: 19:23:01
(UTC+01:00)

ISS - Visible Passes

Search period start: 24 November 2017 00:00
Search period end: 04 December 2017 00:00
Orbit: 401 x 407 km, 51.6° (Epoch: 25 November)

Date Brightness Start Highest point End Pass type
(mag) Time Alt. Az. Time Alt. Az. Time Alt. Az.
25 Nov -1.2 19:14:42 10° SSE 19:14:53 11° SSE 19:14:53 11° SSE visible
26 Nov -1.2 19:56:47 10° SW 19:57:43 17° SW 19:57:43 17° SW visible
27 Nov -2.7 19:04:50 10° SSW 19:07:43 28° SE 19:07:46 28° SE visible
28 Nov -1.8 18:13:26 10° S 18:15:31 16° SE 18:17:36 10° E visible
28 Nov -2.2 19:48:22 10° WSW 19:50:24 34° WSW 19:50:24 34° WSW visible
29 Nov -3.8 18:55:59 10° SW 18:59:15 66° SE 19:00:16 39° ENE visible
30 Nov -2.8 18:03:53 10° SSW 18:06:55 35° SE 18:09:56 10° ENE visible
30 Nov -2.3 19:40:17 10° W 19:42:43 33° NW 19:42:43 33° NW visible
01 Dec -3.5 18:47:37 10° WSW 18:50:51 58° NNW 18:52:28 26° NE visible
02 Dec -2.0 19:32:23 10° WNW 19:34:47 24° NNW 19:34:47 24° NNW visible
03 Dec -2.6 18:39:32 10° W 18:42:32 33° NNW 18:44:26 18° NNE visible
